Time,TemperatureF,DewpointF,PressureIn,WindDirection,WindDirectionDegrees,WindSpeedMPH,WindSpeedGustMPH,Humidity,HourlyPrecipIn,Conditions,Clouds,dailyrainin,SoftwareType,DateUTC
2013-09-16 00:04:00,68.4,67.8,30.00,NE,45,0.0,-999.0,98,-99.99,,,0.00,Acu-Link.com,2013-09-16 05:04:00,
2013-09-16 00:19:00,68.2,67.6,30.00,ENE,67,0.0,-999.0,98,-99.99,,,0.00,Acu-Link.com,2013-09-16 05:19:00,
2013-09-16 00:34:00,67.8,67.2,30.00,SSW,202,0.0,-999.0,98,-99.99,,,0.00,Acu-Link.com,2013-09-16 05:34:00,
2013-09-16 00:49:00,67.6,67.0,30.00,East,90,0.0,-999.0,98,-99.99,,,0.00,Acu-Link.com,2013-09-16 05:49:00,
2013-09-16 01:04:00,67.5,66.9,29.99,ESE,112,0.0,-999.0,98,-99.99,,,0.00,Acu-Link.com,2013-09-16 06:04:00,
2013-09-16 01:19:00,67.5,66.9,29.99,SSE,157,0.0,-999.0,98,-99.99,,,0.00,Acu-Link.com,2013-09-16 06:19:00,
2013-09-16 01:34:00,67.5,66.9,30.00,NW,315,0.0,-999.0,98,-99.99,,,0.00,Acu-Link.com,2013-09-16 06:34:00,
2013-09-16 01:49:00,67.5,66.9,30.00,NNW,337,0.0,-999.0,98,-99.99,,,0.00,Acu-Link.com,2013-09-16 06:49:00,
2013-09-16 02:04:00,67.5,66.9,30.00,NNW,337,0.0,-999.0,98,-99.99,,,0.00,Acu-Link.com,2013-09-16 07:04:00,
2013-09-16 02:20:00,67.5,66.9,30.00,NNW,337,0.0,-999.0,98,-99.99,,,0.00,Acu-Link.com,2013-09-16 07:20:00,
2013-09-16 02:35:00,67.5,66.9,30.00,North,0,0.0,-999.0,98,-99.99,,,0.00,Acu-Link.com,2013-09-16 07:35:00,
2013-09-16 02:50:00,67.1,66.5,30.00,North,0,0.0,-999.0,98,-99.99,,,0.00,Acu-Link.com,2013-09-16 07:50:00,
2013-09-16 03:05:00,66.9,66.3,29.99,SSW,202,0.0,-999.0,98,-99.99,,,0.00,Acu-Link.com,2013-09-16 08:05:00,
2013-09-16 03:21:00,66.9,66.3,29.99,SSW,202,0.0,-999.0,98,-99.99,,,0.00,Acu-Link.com,2013-09-16 08:21:00,
2013-09-16 03:36:00,66.9,66.3,29.99,WNW,292,0.0,-999.0,98,-99.99,,,0.00,Acu-Link.com,2013-09-16 08:36:00,
2013-09-16 03:51:00,66.6,66.0,29.99,ENE,67,0.0,-999.0,98,-99.99,,,0.00,Acu-Link.com,2013-09-16 08:51:00,
2013-09-16 04:06:00,66.7,66.1,30.00,WNW,292,0.0,-999.0,98,-99.99,,,0.00,Acu-Link.com,2013-09-16 09:06:00,
2013-09-16 04:21:00,66.2,65.6,29.99,ENE,67,0.0,-999.0,98,-99.99,,,0.00,Acu-Link.com,2013-09-16 09:21:00,
2013-09-16 04:37:00,66.2,65.6,30.00,NE,45,0.0,-999.0,98,-99.99,,,0.00,Acu-Link.com,2013-09-16 09:37:00,
2013-09-16 04:52:00,66.0,65.4,29.99,WNW,292,0.0,-999.0,98,-99.99,,,0.00,Acu-Link.com,2013-09-16 09:52:00,
2013-09-16 05:07:00,66.0,65.4,29.99,NE,45,0.0,-999.0,98,-99.99,,,0.00,Acu-Link.com,2013-09-16 10:07:00,
2013-09-16 05:22:00,65.8,65.2,30.00,East,90,0.0,-999.0,98,-99.99,,,0.00,Acu-Link.com,2013-09-16 10:22:00,
2013-09-16 05:37:00,65.8,65.2,29.99,NE,45,0.0,-999.0,98,-99.99,,,0.00,Acu-Link.com,2013-09-16 10:37:00,
2013-09-16 05:52:00,65.8,65.2,30.00,ESE,112,0.0,-999.0,98,-99.99,,,0.00,Acu-Link.com,2013-09-16 10:52:00,
2013-09-16 06:07:00,65.8,65.2,30.00,NNE,22,0.0,-999.0,98,-99.99,,,0.00,Acu-Link.com,2013-09-16 11:07:00,
2013-09-16 06:23:00,65.7,65.1,30.01,WNW,292,0.0,-999.0,98,-99.99,,,0.00,Acu-Link.com,2013-09-16 11:23:00,
2013-09-16 06:38:00,65.7,65.1,30.00,NE,45,0.0,-999.0,98,-99.99,,,0.00,Acu-Link.com,2013-09-16 11:38:00,
2013-09-16 06:53:00,65.7,65.1,30.01,NW,315,0.0,-999.0,98,-99.99,,,0.00,Acu-Link.com,2013-09-16 11:53:00,
2013-09-16 07:08:00,65.7,65.1,30.02,WNW,292,0.0,-999.0,98,-99.99,,,0.00,Acu-Link.com,2013-09-16 12:08:00,
2013-09-16 07:23:00,65.8,65.2,30.02,WNW,292,0.0,-999.0,98,-99.99,,,0.00,Acu-Link.com,2013-09-16 12:23:00,
2013-09-16 07:38:00,66.9,66.3,30.02,WNW,292,0.0,-999.0,98,-99.99,,,0.00,Acu-Link.com,2013-09-16 12:38:00,
2013-09-16 07:54:00,67.6,67.0,30.02,WSW,247,0.0,-999.0,98,-99.99,,,0.00,Acu-Link.com,2013-09-16 12:54:00,
2013-09-16 08:09:00,68.9,68.3,30.02,WSW,247,0.0,-999.0,98,-99.99,,,0.00,Acu-Link.com,2013-09-16 13:09:00,
2013-09-16 08:24:00,70.9,70.3,30.03,South,180,0.0,-999.0,98,-99.99,,,0.00,Acu-Link.com,2013-09-16 13:24:00,
2013-09-16 08:39:00,73.9,73.3,30.04,SSW,202,0.0,-999.0,98,-99.99,,,0.00,Acu-Link.com,2013-09-16 13:39:00,
2013-09-16 08:54:00,77.5,76.9,30.03,SW,225,1.1,-999.0,98,-99.99,,,0.00,Acu-Link.com,2013-09-16 13:54:00,
2013-09-16 09:09:00,79.2,78.6,30.03,East,90,0.0,-999.0,98,-99.99,,,0.00,Acu-Link.com,2013-09-16 14:09:00,
2013-09-16 09:24:00,80.8,79.2,30.03,WNW,292,1.1,-999.0,95,-99.99,,,0.00,Acu-Link.com,2013-09-16 14:24:00,
2013-09-16 09:40:00,81.3,78.4,30.04,North,0,3.7,-999.0,91,-99.99,,,0.00,Acu-Link.com,2013-09-16 14:40:00,
2013-09-16 09:55:00,82.8,78.9,30.04,ESE,112,1.7,-999.0,88,-99.99,,,0.00,Acu-Link.com,2013-09-16 14:55:00,
2013-09-16 10:10:00,84.9,79.1,30.04,NNE,22,1.7,-999.0,83,-99.99,,,0.00,Acu-Link.com,2013-09-16 15:10:00,
2013-09-16 10:25:00,86.0,77.5,30.03,West,270,0.0,-999.0,76,-99.99,,,0.00,Acu-Link.com,2013-09-16 15:25:00,
2013-09-16 10:40:00,87.1,78.6,30.04,SE,135,1.7,-999.0,76,-99.99,,,0.00,Acu-Link.com,2013-09-16 15:40:00,
2013-09-16 10:55:00,88.3,78.1,30.03,NE,45,2.2,-999.0,72,-99.99,,,0.00,Acu-Link.com,2013-09-16 15:55:00,
2013-09-16 11:10:00,87.4,77.7,30.03,WNW,292,5.3,-999.0,73,-99.99,,,0.00,Acu-Link.com,2013-09-16 16:10:00,
2013-09-16 11:25:00,87.1,77.8,30.03,North,0,3.7,-999.0,74,-99.99,,,0.00,Acu-Link.com,2013-09-16 16:25:00,
2013-09-16 11:40:00,86.5,77.6,30.03,NNW,337,1.7,-999.0,75,-99.99,,,0.00,Acu-Link.com,2013-09-16 16:40:00,
2013-09-16 11:56:00,90.0,79.3,30.03,NE,45,2.7,-999.0,71,-99.99,,,0.00,Acu-Link.com,2013-09-16 16:56:00,
2013-09-16 12:11:00,88.0,77.8,30.02,NNE,22,2.2,-999.0,72,-99.99,,,0.00,Acu-Link.com,2013-09-16 17:11:00,
2013-09-16 12:26:00,91.2,78.2,30.02,WNW,292,1.7,-999.0,66,-99.99,,,0.00,Acu-Link.com,2013-09-16 17:26:00,
2013-09-16 12:41:00,93.2,77.7,30.01,SSE,157,1.7,-999.0,61,-99.99,,,0.00,Acu-Link.com,2013-09-16 17:41:00,
2013-09-16 12:56:00,91.4,76.0,30.01,SE,135,0.0,-999.0,61,-99.99,,,0.00,Acu-Link.com,2013-09-16 17:56:00,
2013-09-16 13:11:00,93.6,76.6,30.00,NW,315,6.8,-999.0,58,-99.99,,,0.00,Acu-Link.com,2013-09-16 18:11:00,
2013-09-16 13:26:00,95.5,77.3,29.99,West,270,2.7,-999.0,56,-99.99,,,0.00,Acu-Link.com,2013-09-16 18:26:00,
2013-09-16 13:41:00,90.7,72.3,29.99,NNW,337,5.3,-999.0,55,-99.99,,,0.00,Acu-Link.com,2013-09-16 18:41:00,
2013-09-16 13:56:00,94.6,74.8,29.98,NNW,337,5.8,-999.0,53,-99.99,,,0.00,Acu-Link.com,2013-09-16 18:56:00,
2013-09-16 14:12:00,94.1,73.2,29.97,NNE,22,2.7,-999.0,51,-99.99,,,0.00,Acu-Link.com,2013-09-16 19:12:00,
2013-09-16 14:27:00,98.2,75.1,29.97,North,0,1.1,-999.0,48,-99.99,,,0.00,Acu-Link.com,2013-09-16 19:27:00,
2013-09-16 14:42:00,99.5,75.0,29.96,SSE,157,3.2,-999.0,46,-99.99,,,0.00,Acu-Link.com,2013-09-16 19:42:00,
2013-09-16 14:57:00,100.6,75.3,29.96,East,90,2.2,-999.0,45,-99.99,,,0.00,Acu-Link.com,2013-09-16 19:57:00,
2013-09-16 15:12:00,95.2,73.6,29.95,NNW,337,5.8,-999.0,50,-99.99,,,0.00,Acu-Link.com,2013-09-16 20:12:00,
2013-09-16 15:27:00,97.0,73.4,29.94,SSE,157,4.7,-999.0,47,-99.99,,,0.00,Acu-Link.com,2013-09-16 20:27:00,
2013-09-16 15:42:00,99.7,75.8,29.94,ENE,67,1.1,-999.0,47,-99.99,,,0.00,Acu-Link.com,2013-09-16 20:42:00,
2013-09-16 15:57:00,95.2,73.0,29.94,NE,45,2.7,-999.0,49,-99.99,,,0.00,Acu-Link.com,2013-09-16 20:57:00,
2013-09-16 16:12:00,97.3,74.9,29.94,West,270,2.2,-999.0,49,-99.99,,,0.00,Acu-Link.com,2013-09-16 21:12:00,
2013-09-16 16:28:00,99.5,75.0,29.93,SE,135,2.7,-999.0,46,-99.99,,,0.00,Acu-Link.com,2013-09-16 21:28:00,
2013-09-16 16:43:00,98.8,73.0,29.93,SE,135,2.7,-999.0,44,-99.99,,,0.00,Acu-Link.com,2013-09-16 21:43:00,
2013-09-16 16:58:00,98.1,75.0,29.93,NNE,22,1.7,-999.0,48,-99.99,,,0.00,Acu-Link.com,2013-09-16 21:58:00,
2013-09-16 17:13:00,97.7,74.0,29.93,WSW,247,1.7,-999.0,47,-99.99,,,0.00,Acu-Link.com,2013-09-16 22:13:00,
2013-09-16 17:28:00,95.9,73.6,29.93,NNW,337,0.0,-999.0,49,-99.99,,,0.00,Acu-Link.com,2013-09-16 22:28:00,
2013-09-16 17:43:00,95.7,74.0,29.92,SSW,202,0.0,-999.0,50,-99.99,,,0.00,Acu-Link.com,2013-09-16 22:43:00,
2013-09-16 17:58:00,94.3,72.8,29.93,NW,315,0.0,-999.0,50,-99.99,,,0.00,Acu-Link.com,2013-09-16 22:58:00,
2013-09-16 18:13:00,93.4,73.1,29.93,South,180,0.0,-999.0,52,-99.99,,,0.00,Acu-Link.com,2013-09-16 23:13:00,
2013-09-16 18:28:00,90.5,73.1,29.94,South,180,0.0,-999.0,57,-99.99,,,0.00,Acu-Link.com,2013-09-16 23:28:00,
2013-09-16 18:44:00,88.5,73.3,29.94,South,180,0.0,-999.0,61,-99.99,,,0.00,Acu-Link.com,2013-09-16 23:44:00,
2013-09-16 18:59:00,85.3,74.4,29.94,NW,315,0.0,-999.0,70,-99.99,,,0.00,Acu-Link.com,2013-09-16 23:59:00,
2013-09-16 19:14:00,83.8,74.2,29.94,North,0,0.0,-999.0,73,-99.99,,,0.00,Acu-Link.com,2013-09-17 00:14:00,
2013-09-16 19:29:00,81.3,74.9,29.94,NW,315,0.0,-999.0,81,-99.99,,,0.00,Acu-Link.com,2013-09-17 00:29:00,
2013-09-16 19:44:00,80.6,74.2,29.95,East,90,0.0,-999.0,81,-99.99,,,0.00,Acu-Link.com,2013-09-17 00:44:00,
2013-09-16 19:59:00,79.0,74.4,29.95,NE,45,0.0,-999.0,86,-99.99,,,0.00,Acu-Link.com,2013-09-17 00:59:00,
2013-09-16 20:14:00,77.5,73.3,29.96,North,0,0.0,-999.0,87,-99.99,,,0.00,Acu-Link.com,2013-09-17 01:14:00,
2013-09-16 20:29:00,76.5,73.3,29.97,NE,45,0.0,-999.0,90,-99.99,,,0.00,Acu-Link.com,2013-09-17 01:29:00,
2013-09-16 20:44:00,75.7,74.5,29.97,SE,135,0.0,-999.0,96,-99.99,,,0.00,Acu-Link.com,2013-09-17 01:44:00,
2013-09-16 21:00:00,75.0,74.4,29.97,ESE,112,0.0,-999.0,98,-99.99,,,0.00,Acu-Link.com,2013-09-17 02:00:00,
2013-09-16 21:15:00,74.3,73.7,29.98,SSE,157,0.0,-999.0,98,-99.99,,,0.00,Acu-Link.com,2013-09-17 02:15:00,
2013-09-16 21:30:00,73.8,73.2,29.98,East,90,0.0,-999.0,98,-99.99,,,0.00,Acu-Link.com,2013-09-17 02:30:00,
2013-09-16 21:45:00,73.2,72.6,29.99,SSW,202,0.0,-999.0,98,-99.99,,,0.00,Acu-Link.com,2013-09-17 02:45:00,
2013-09-16 22:00:00,72.7,72.1,29.99,ENE,67,0.0,-999.0,98,-99.99,,,0.00,Acu-Link.com,2013-09-17 03:00:00,
2013-09-16 22:15:00,72.3,71.7,29.99,NW,315,0.0,-999.0,98,-99.99,,,0.00,Acu-Link.com,2013-09-17 03:15:00,
2013-09-16 22:30:00,72.3,71.7,30.00,West,270,0.0,-999.0,98,-99.99,,,0.00,Acu-Link.com,2013-09-17 03:30:00,
2013-09-16 22:45:00,71.6,71.0,30.00,NE,45,0.0,-999.0,98,-99.99,,,0.00,Acu-Link.com,2013-09-17 03:45:00,
2013-09-16 23:00:00,71.1,70.5,30.00,NNE,22,0.0,-999.0,98,-99.99,,,0.00,Acu-Link.com,2013-09-17 04:00:00,
2013-09-16 23:15:00,70.7,70.1,30.01,WNW,292,0.0,-999.0,98,-99.99,,,0.00,Acu-Link.com,2013-09-17 04:15:00,
2013-09-16 23:31:00,71.2,70.6,30.01,NW,315,0.0,-999.0,98,-99.99,,,0.00,Acu-Link.com,2013-09-17 04:31:00,
2013-09-16 23:46:00,70.2,69.6,30.00,SSW,202,0.0,-999.0,98,-99.99,,,0.00,Acu-Link.com,2013-09-17 04:46:00,